EW2719 Weather Reports


time (UTC)temp
C
wind
direction
speed
KPH
gust
KPH
rain 1hr
cm
rain 24hr
cm
rain mn
cm
humidity
%
barometer
mb
20260510153052 12 293 19.3 27.4 0.00 0.00 0.00 55 1011.0
20260510151546 12 293 17.7 24.1 0.00 0.00 0.00 58 1011.0
20260510150047 12 313 17.7 27.4 0.00 0.00 0.00 55 1011.1
20260510144548 13 302 16.1 29.0 0.00 0.00 0.00 55 1011.2
20260510143044 13 285 17.7 27.4 0.00 0.00 0.00 58 1011.2
20260510141546 12 360 12.9 22.5 0.00 0.00 0.00 62 1011.4
20260510140041 11 327 12.9 25.7 0.00 0.00 0.00 59 1011.4
20260510134540 12 301 11.3 27.4 0.00 0.00 0.00 61 1011.5
20260510133038 13 251 14.5 24.1 0.00 0.00 0.00 60 1011.7
20260510131537 13 290 14.5 25.7 0.00 0.00 0.00 62 1011.8
20260510130046 13 263 16.1 25.7 0.00 0.00 0.00 62 1012.0
20260510124543 12 308 17.7 29.0 0.00 0.00 0.00 63 1012.0
20260510123033 13 319 16.1 24.1 0.00 0.00 0.00 64 1012.2
20260510121535 12 295 14.5 25.7 0.00 0.00 0.00 68 1012.4
20260510120033 13 274 14.5 22.5 0.00 0.00 0.00 71 1012.4
20260510114529 12 296 14.5 27.4 0.00 0.00 0.00 69 1012.6
20260510113029 11 294 11.3 24.1 0.00 0.00 0.00 73 1012.8
20260510111527 11 307 14.5 22.5 0.00 0.00 0.00 74 1012.9
20260510110037 11 287 17.7 25.7 0.00 0.00 0.00 74 1013.0
20260510104525 11 304 14.5 25.7 0.00 0.00 0.00 74 1013.1
20260510103024 11 302 17.7 29.0 0.00 0.00 0.00 73 1013.3
20260510101531 12 296 16.1 25.7 0.00 0.00 0.00 72 1013.2
20260510100024 12 329 14.5 27.4 0.00 0.00 0.00 71 1013.2
20260510094521 12 329 16.1 25.7 0.00 0.00 0.00 74 1013.3
20260510093019 12 289 11.3 24.1 0.00 0.00 0.00 72 1013.3
20260510091520 13 316 14.5 20.9 0.00 0.00 0.00 71 1013.4
20260510090018 12 298 6.4 17.7 0.00 0.00 0.00 77 1013.5
20260510084511 11 5 6.4 19.3 0.00 0.00 0.00 76 1013.8
20260510083008 11 336 8.0 16.1 0.00 0.00 0.00 78 1014.0
20260510081509 11 311 6.4 16.1 0.00 0.00 0.00 79 1014.1
20260510080007 11 293 11.3 19.3 0.00 0.00 0.00 80 1014.2
20260510074506 11 290 9.7 20.9 0.00 0.00 0.00 80 1014.1
20260510073004 10 325 9.7 17.7 0.00 0.00 0.00 75 1014.1
20260510071502 11 325 12.9 19.3 0.00 0.00 0.00 74 1014.1
20260510070059 10 5 6.4 14.5 0.00 0.00 0.00 76 1014.1
20260510064558 10 340 8.0 16.1 0.00 0.00 0.00 80 1014.1
20260510063055 10 5 11.3 16.1 0.00 0.00 0.00 81 1014.1
20260510061550 9 342 9.7 17.7 0.00 0.00 0.00 83 1014.2
20260510060046 8 338 6.4 16.1 0.00 0.00 0.00 84 1014.4
20260510054541 8 339 9.7 17.7 0.00 0.00 0.00 86 1014.4
20260510053036 7 325 11.3 16.1 0.00 0.00 0.00 87 1014.5
20260510051532 7 302 8.0 14.5 0.00 0.00 0.00 87 1014.5
20260510050028 7 293 11.3 19.3 0.00 0.00 0.00 87 1015.2
20260510044524 7 289 9.7 17.7 0.00 0.00 0.00 89 1014.7
20260510043019 7 262 6.4 16.1 0.00 0.00 0.00 89 1014.7
20260510041517 7 238 6.4 11.3 0.00 0.00 0.00 89 1014.7
20260510040012 7 230 3.2 9.7 0.00 0.00 0.00 88 1014.8
20260510034521 7 217 4.8 8.0 0.00 0.00 0.00 88 1015.0
20260510033014 7 213 6.4 9.7 0.00 0.00 0.00 88 1015.0
20260510031507 7 211 4.8 8.0 0.00 0.00 0.00 87 1015.0
20260510030006 7 218 6.4 9.7 0.00 0.00 0.00 87 1015.3
20260510024504 7 217 4.8 9.7 0.00 0.00 0.00 86 1015.4
20260510023002 7 220 4.8 8.0 0.00 0.00 0.00 86 1015.5
20260510021502 7 212 4.8 8.0 0.00 0.00 0.00 85 1015.7
20260510020059 7 218 4.8 8.0 0.00 0.00 0.00 85 1015.9
20260510014557 7 231 3.2 8.0 0.00 0.00 0.00 84 1016.0
20260510013056 7 216 4.8 8.0 0.00 0.00 0.00 83 1016.1
20260510011555 7 196 3.2 8.0 0.00 0.00 0.00 83 1016.0
20260510010053 7 173 8.0 9.7 0.00 0.00 0.00 80 1016.2
20260510004551 8 199 3.2 6.4 0.00 0.00 0.00 78 1016.4
20260510003059 8 204 4.8 8.0 0.00 0.00 0.00 75 1016.7
20260510001545 8 192 1.6 8.0 0.00 0.00 0.00 75 1016.8
20260510000042 8 171 6.4 9.7 0.00 0.00 0.00 75 1017.0
20260509234543 8 160 8.0 9.7 0.00 0.00 0.00 74 1017.3
20260509233038 8 170 1.6 6.4 0.00 0.00 0.00 71 1017.6
20260509231534 8 157 1.6 6.4 0.00 0.00 0.00 70 1017.9
20260509230037 8 155 0.0 4.8 0.00 0.00 0.00 71 1018.0
20260509224544 7 163 1.6 4.8 0.00 0.00 0.00 71 1018.2
20260509223028 7 145 0.0 3.2 0.00 0.00 0.00 71 1018.2
20260509221530 7 136 0.0 3.2 0.00 0.00 0.00 71 1018.4
20260509220024 7 150 0.0 3.2 0.00 0.00 0.00 70 1018.5
20260509214524 7 151 1.6 8.0 0.00 0.00 0.00 70 1018.5
20260509213023 7 153 1.6 4.8 0.00 0.00 0.00 72 1018.6
20260509211522 8 137 0.0 11.3 0.00 0.00 0.00 71 1018.7
20260509210022 8 140 3.2 11.3 0.00 0.00 0.00 68 1018.7
20260509204520 8 126 0.0 6.4 0.00 0.00 0.00 65 1018.6
20260509203019 9 125 0.0 6.4 0.00 0.00 0.00 63 1018.7
20260509201519 9 124 1.6 6.4 0.00 0.00 0.00 62 1018.7
20260509200018 9 124 0.0 3.2 0.00 0.00 0.00 62 1018.8
20260509194521 10 144 0.0 3.2 0.00 0.00 0.00 61 1018.9
20260509193018 10 140 0.0 4.8 0.00 0.00 0.00 60 1018.9
20260509191518 10 156 3.2 8.0 0.00 0.00 0.00 60 1018.8
20260509190017 11 144 0.0 4.8 0.00 0.00 0.00 59 1018.7
20260509184524 11 142 1.6 4.8 0.00 0.00 0.00 58 1018.8
20260509183016 12 146 1.6 4.8 0.00 0.00 0.00 55 1018.6
20260509181515 13 170 1.6 8.0 0.00 0.00 0.00 53 1018.9
20260509180014 13 156 1.6 8.0 0.00 0.00 0.00 52 1018.7
20260509174513 13 165 4.8 9.7 0.00 0.00 0.00 49 1018.8
20260509173015 14 168 8.0 14.5 0.00 0.00 0.00 46 1019.0
20260509171511 14 184 6.4 12.9 0.00 0.00 0.00 46 1019.0
20260509170011 15 179 8.0 14.5 0.00 0.00 0.00 44 1018.9
20260509164508 15 180 3.2 16.1 0.00 0.00 0.00 42 1019.1
20260509163009 15 175 6.4 19.3 0.00 0.00 0.00 43 1019.3
20260509161506 15 171 8.0 14.5 0.00 0.00 0.00 41 1019.5
20260509160006 15 173 9.7 16.1 0.00 0.00 0.00 41 1019.7
20260509154504 15 169 9.7 17.7 0.00 0.00 0.00 40 1019.8